timestamp,wind_dir_avg,wind_spd_avg,wind_spd_max_dir,wind_spd_gust,battery_voltage,lat,long
2021-03-11 00:04:01+00:00,220.0,4.29,225.0,5.3,12.49,47.59359,-54.27349
2021-03-11 00:14:01+00:00,229.0,4.17,232.0,5.1,12.49,47.59359,-54.27349
2021-03-11 00:24:01+00:00,239.0,5.14,233.0,5.88,12.49,47.59359,-54.27349
2021-03-11 00:34:01+00:00,230.0,4.93,233.0,5.63,12.49,47.59359,-54.27349
2021-03-11 00:44:01+00:00,246.0,4.8,250.0,5.35,12.49,47.59359,-54.27349
2021-03-11 00:54:01+00:00,237.0,6.08,239.0,6.59,12.49,47.59359,-54.27349
2021-03-11 01:04:01+00:00,238.0,5.74,234.0,6.19,12.49,47.59359,-54.27349
2021-03-11 01:14:01+00:00,206.0,4.42,220.0,5.63,12.41,47.59359,-54.27349
2021-03-11 01:24:01+00:00,205.0,4.28,217.0,5.66,12.41,47.59359,-54.27349
2021-03-11 01:34:01+00:00,221.0,4.8,221.0,5.65,12.41,47.59359,-54.27349
2021-03-11 01:44:01+00:00,230.0,4.71,231.0,5.25,12.41,47.59359,-54.27349
2021-03-11 01:54:01+00:00,200.0,3.36,226.0,5.02,12.41,47.59359,-54.27349
2021-03-11 02:04:01+00:00,225.0,5.4,224.0,6.02,12.41,47.59359,-54.27349
2021-03-11 02:14:01+00:00,186.0,3.25,199.0,4.88,12.41,47.59359,-54.27349
2021-03-11 02:24:01+00:00,224.0,5.47,221.0,5.86,12.41,47.59359,-54.27349
2021-03-11 02:34:01+00:00,227.0,5.54,223.0,6.45,12.41,47.59359,-54.27349
2021-03-11 02:44:01+00:00,215.0,5.72,216.0,7.04,12.41,47.59359,-54.27349
2021-03-11 02:54:01+00:00,226.0,4.91,225.0,5.56,12.41,47.59359,-54.27349
2021-03-11 03:04:01+00:00,221.0,3.93,225.0,4.97,12.41,47.59359,-54.27349
2021-03-11 03:14:01+00:00,227.0,5.37,225.0,5.81,12.41,47.59359,-54.27349
2021-03-11 03:24:01+00:00,215.0,5.13,221.0,6.26,12.41,47.59359,-54.27349
2021-03-11 03:34:01+00:00,221.0,6.39,219.0,7.03,12.41,47.59359,-54.27349
2021-03-11 03:44:01+00:00,229.0,6.46,228.0,7.11,12.41,47.59359,-54.27349
2021-03-11 03:54:01+00:00,212.0,5.44,215.0,7.41,12.41,47.59359,-54.27349
2021-03-11 04:04:01+00:00,233.0,6.45,230.0,7.11,12.41,47.59359,-54.27349
2021-03-11 04:14:01+00:00,235.0,6.79,229.0,7.93,12.41,47.59359,-54.27349
2021-03-11 04:24:01+00:00,226.0,6.35,222.0,7.6,12.41,47.59359,-54.27349
2021-03-11 04:34:01+00:00,231.0,5.64,233.0,6.71,12.41,47.59359,-54.27349
2021-03-11 04:44:01+00:00,238.0,5.79,236.0,6.22,12.41,47.59359,-54.27349
2021-03-11 04:54:01+00:00,239.0,8.39,238.0,9.85,12.41,47.59359,-54.27349
2021-03-11 05:04:01+00:00,241.0,8.29,239.0,9.92,12.41,47.59359,-54.27349
2021-03-11 05:14:01+00:00,234.0,6.63,238.0,7.41,12.41,47.59359,-54.27349
2021-03-11 05:24:01+00:00,237.0,8.3,240.0,9.46,12.41,47.59359,-54.27349
2021-03-11 05:34:01+00:00,237.0,7.62,244.0,8.95,12.41,47.59359,-54.27349
2021-03-11 05:44:01+00:00,232.0,7.45,231.0,8.37,12.41,47.59359,-54.27349
2021-03-11 05:54:01+00:00,236.0,7.92,238.0,8.96,12.41,47.59359,-54.27349
2021-03-11 06:04:01+00:00,233.0,6.2,239.0,6.96,12.41,47.59359,-54.27349
2021-03-11 06:14:01+00:00,228.0,5.62,228.0,6.34,12.33,47.59359,-54.27349
2021-03-11 06:24:01+00:00,225.0,6.34,227.0,7.93,12.33,47.59359,-54.27349
2021-03-11 06:34:01+00:00,233.0,7.7,235.0,9.17,12.33,47.59359,-54.27349
2021-03-11 06:44:01+00:00,236.0,8.8,239.0,9.68,12.33,47.59359,-54.27349
2021-03-11 06:54:01+00:00,230.0,7.2,233.0,8.34,12.33,47.59359,-54.27349
2021-03-11 07:04:01+00:00,222.0,7.38,225.0,8.7,12.33,47.59359,-54.27349
2021-03-11 07:14:01+00:00,239.0,8.05,243.0,9.06,12.33,47.59359,-54.27349
2021-03-11 07:24:01+00:00,232.0,8.85,234.0,9.85,12.33,47.59359,-54.27349
2021-03-11 07:34:01+00:00,234.0,8.54,232.0,9.85,12.33,47.59359,-54.27349
2021-03-11 07:44:01+00:00,236.0,8.57,241.0,9.8,12.33,47.59359,-54.27349
2021-03-11 07:54:01+00:00,242.0,8.21,246.0,9.67,12.33,47.59359,-54.27349
2021-03-11 08:04:01+00:00,237.0,7.53,236.0,8.72,12.33,47.59359,-54.27349
2021-03-11 08:14:01+00:00,233.0,7.14,244.0,8.56,12.33,47.59359,-54.27349
2021-03-11 08:24:01+00:00,234.0,8.37,232.0,9.43,12.33,47.59359,-54.27349
2021-03-11 08:34:01+00:00,231.0,7.71,232.0,9.4,12.33,47.59359,-54.27349
2021-03-11 08:44:01+00:00,234.0,8.01,241.0,9.26,12.33,47.59359,-54.27349
2021-03-11 08:54:01+00:00,234.0,7.82,237.0,9.03,12.33,47.59359,-54.27349
2021-03-11 09:04:01+00:00,233.0,8.91,237.0,10.43,12.33,47.59359,-54.27349
2021-03-11 09:14:01+00:00,227.0,8.37,222.0,9.88,12.25,47.59359,-54.27349
2021-03-11 09:24:01+00:00,236.0,9.27,233.0,10.39,12.25,47.59359,-54.27349
2021-03-11 09:34:01+00:00,233.0,9.37,233.0,10.27,12.25,47.59359,-54.27349
2021-03-11 09:44:01+00:00,227.0,8.39,226.0,10.22,12.25,47.59359,-54.27349
2021-03-11 09:54:01+00:00,231.0,9.11,234.0,10.28,12.25,47.59359,-54.27349
2021-03-11 10:04:01+00:00,227.0,9.09,228.0,10.43,12.25,47.59359,-54.27349
2021-03-11 10:14:01+00:00,229.0,9.06,221.0,11.03,12.25,47.59359,-54.27349
2021-03-11 10:24:01+00:00,230.0,9.31,228.0,10.73,12.25,47.59359,-54.27349
2021-03-11 10:34:01+00:00,225.0,9.56,224.0,11.42,12.25,47.59359,-54.27349
2021-03-11 10:44:01+00:00,223.0,9.93,220.0,11.39,12.25,47.59359,-54.27349
2021-03-11 10:54:01+00:00,223.0,10.26,218.0,11.83,12.25,47.59359,-54.27349
2021-03-11 11:04:01+00:00,225.0,9.48,223.0,10.9,12.25,47.59359,-54.27349
2021-03-11 11:14:01+00:00,228.0,9.82,225.0,11.55,13.68,47.59359,-54.27349
2021-03-11 11:24:01+00:00,230.0,9.93,237.0,12.63,13.68,47.59359,-54.27349
2021-03-11 11:34:01+00:00,232.0,9.95,240.0,11.96,13.68,47.59359,-54.27349
2021-03-11 11:44:01+00:00,230.0,9.43,225.0,11.38,13.68,47.59359,-54.27349
2021-03-11 11:54:01+00:00,227.0,10.69,244.0,11.95,13.68,47.59359,-54.27349
2021-03-11 12:04:01+00:00,229.0,10.84,229.0,13.18,13.68,47.59359,-54.27349
2021-03-11 13:14:01+00:00,222.0,10.85,220.0,12.79,14.32,47.59359,-54.27349
2021-03-11 13:24:01+00:00,228.0,11.37,227.0,13.02,14.32,47.59359,-54.27349
2021-03-11 13:34:01+00:00,225.0,10.77,227.0,12.51,14.32,47.59359,-54.27349
2021-03-11 13:44:01+00:00,215.0,9.58,222.0,10.88,14.32,47.59359,-54.27349
2021-03-11 13:54:01+00:00,227.0,11.05,217.0,12.99,14.32,47.59359,-54.27349
2021-03-11 14:04:01+00:00,223.0,10.29,221.0,11.75,14.32,47.59359,-54.27349
2021-03-11 14:14:01+00:00,217.0,9.41,217.0,11.26,13.92,47.59359,-54.27349
2021-03-11 14:24:01+00:00,215.0,9.97,216.0,11.79,13.92,47.59359,-54.27349
2021-03-11 14:34:01+00:00,227.0,11.75,227.0,14.34,13.92,47.59359,-54.27349
2021-03-11 14:44:01+00:00,228.0,11.73,235.0,13.87,13.92,47.59359,-54.27349
2021-03-11 14:54:01+00:00,222.0,10.56,220.0,12.38,13.92,47.59359,-54.27349
2021-03-11 15:04:01+00:00,218.0,12.13,212.0,14.17,13.92,47.59359,-54.27349
2021-03-11 15:14:01+00:00,214.0,12.68,210.0,14.44,13.92,47.59359,-54.27349
2021-03-11 15:24:01+00:00,214.0,12.69,215.0,14.19,13.92,47.59359,-54.27349
2021-03-11 15:34:01+00:00,210.0,13.64,215.0,15.46,13.92,47.59359,-54.27349
2021-03-11 15:44:01+00:00,214.0,13.06,221.0,15.39,13.92,47.59359,-54.27349
2021-03-11 15:54:01+00:00,213.0,12.64,210.0,14.08,13.92,47.59359,-54.27349
2021-03-11 16:04:01+00:00,215.0,13.28,221.0,16.32,13.92,47.59359,-54.27349
2021-03-11 16:14:01+00:00,214.0,12.97,218.0,14.73,13.84,47.59359,-54.27349
2021-03-11 16:24:01+00:00,214.0,13.11,213.0,14.94,13.84,47.59359,-54.27349
2021-03-11 16:34:01+00:00,215.0,12.86,214.0,14.11,13.84,47.59359,-54.27349
2021-03-11 16:44:01+00:00,220.0,12.54,209.0,14.43,13.84,47.59359,-54.27349
2021-03-11 16:54:01+00:00,225.0,12.07,232.0,13.76,13.84,47.59359,-54.27349
2021-03-11 17:04:01+00:00,225.0,11.34,226.0,13.11,13.84,47.59359,-54.27349
2021-03-11 17:14:01+00:00,233.0,11.06,234.0,12.47,13.84,47.59359,-54.27349
2021-03-11 17:24:01+00:00,230.0,10.58,238.0,13.1,13.84,47.59359,-54.27349
2021-03-11 17:34:01+00:00,227.0,10.53,229.0,13.24,13.84,47.59359,-54.27349
2021-03-11 17:44:01+00:00,228.0,10.88,222.0,12.1,13.84,47.59359,-54.27349
2021-03-11 17:54:01+00:00,228.0,11.25,222.0,12.79,13.84,47.59359,-54.27349
2021-03-11 18:04:01+00:00,221.0,11.61,221.0,12.77,13.84,47.59359,-54.27349
2021-03-11 18:14:01+00:00,228.0,10.67,229.0,13.19,13.92,47.59359,-54.27349
2021-03-11 18:24:01+00:00,227.0,11.3,228.0,13.31,13.92,47.59359,-54.27349
2021-03-11 18:34:01+00:00,230.0,10.32,227.0,11.73,13.92,47.59359,-54.27349
2021-03-11 18:44:01+00:00,234.0,9.49,227.0,10.91,13.92,47.59359,-54.27349
2021-03-11 18:54:01+00:00,232.0,9.07,237.0,11.2,13.92,47.59359,-54.27349
2021-03-11 19:04:01+00:00,231.0,9.85,236.0,11.48,13.92,47.59359,-54.27349
2021-03-11 19:14:01+00:00,230.0,9.16,228.0,11.38,13.53,47.59359,-54.27349
2021-03-11 19:24:01+00:00,226.0,8.64,224.0,9.83,13.53,47.59359,-54.27349
2021-03-11 19:34:01+00:00,231.0,9.32,235.0,11.09,13.53,47.59359,-54.27349
2021-03-11 19:44:01+00:00,233.0,9.35,234.0,10.62,13.53,47.59359,-54.27349
2021-03-11 19:54:01+00:00,229.0,9.55,232.0,10.81,13.53,47.59359,-54.27349
2021-03-11 20:04:01+00:00,229.0,9.91,229.0,12.08,13.53,47.59359,-54.27349
2021-03-11 20:14:01+00:00,232.0,8.53,230.0,10.35,13.29,47.59359,-54.27349
2021-03-11 20:24:01+00:00,245.0,8.54,254.0,10.64,13.29,47.59359,-54.27349
2021-03-11 20:34:01+00:00,247.0,9.07,247.0,10.77,13.29,47.59359,-54.27349
2021-03-11 20:44:01+00:00,232.0,7.15,234.0,7.91,13.29,47.59359,-54.27349
2021-03-11 20:54:01+00:00,230.0,7.26,228.0,8.78,13.29,47.59359,-54.27349
2021-03-11 21:04:01+00:00,229.0,6.8,238.0,8.29,13.29,47.59359,-54.27349
2021-03-11 21:14:01+00:00,234.0,8.66,243.0,11.29,12.73,47.59359,-54.27349
2021-03-11 21:24:01+00:00,238.0,7.02,242.0,8.53,12.73,47.59359,-54.27349
2021-03-11 21:34:01+00:00,247.0,8.0,249.0,8.81,12.73,47.59359,-54.27349
2021-03-11 21:44:01+00:00,251.0,8.6,248.0,10.42,12.73,47.59359,-54.27349
2021-03-11 21:54:01+00:00,240.0,7.77,241.0,8.73,12.73,47.59359,-54.27349
2021-03-11 22:04:01+00:00,232.0,7.45,228.0,8.27,12.73,47.59359,-54.27349
2021-03-11 22:14:01+00:00,227.0,6.27,226.0,7.51,12.57,47.59359,-54.27349
2021-03-11 22:24:01+00:00,230.0,6.04,227.0,7.15,12.57,47.59359,-54.27349
2021-03-11 22:34:01+00:00,230.0,6.55,231.0,7.67,12.57,47.59359,-54.27349
2021-03-11 22:44:01+00:00,231.0,7.46,236.0,8.65,12.57,47.59359,-54.27349
2021-03-11 22:54:01+00:00,234.0,7.62,232.0,8.46,12.57,47.59359,-54.27349
2021-03-11 23:04:01+00:00,230.0,7.86,236.0,8.83,12.57,47.59359,-54.27349
2021-03-11 23:14:01+00:00,227.0,7.65,221.0,8.86,12.49,47.59359,-54.27349
2021-03-11 23:24:01+00:00,226.0,8.12,231.0,9.98,12.49,47.59359,-54.27349
2021-03-11 23:34:01+00:00,227.0,7.74,226.0,8.52,12.49,47.59359,-54.27349
2021-03-11 23:44:01+00:00,225.0,7.64,221.0,8.91,12.49,47.59359,-54.27349
2021-03-11 23:54:01+00:00,230.0,7.93,228.0,8.99,12.49,47.59359,-54.27349
